Home   Weather   Lennestadt   Past weeks

Flag for Germany Past Weather in Lennestadt, North Rhine-Westphalia, Germany — Yesterday and Last 2 Weeks

Now
61 °F

Clear.


Feels Like: 61 °F
Forecast: 49 / 72 °F
Wind: 6 mph from South

Location: Dortmund / Wickede

Current Time: Sep 25, 2016 at 12:49:58 AM

Latest Report: Sep 24, 2016 at 9:50 PM


Visibility: 10 mi

Pressure: 30.15 "Hg

Humidity: 52%

Dew Point: 43 °F

Location of LennestadtLocation

Past Weather in Lennestadt — Graph

°F

Lennestadt Temperature Yesterday

Maximum temperature yesterday: 73 °F (at 4:20 PM)
Minimum temperature yesterday: 50 °F (at 5:20 AM)
Average temperature yesterday: 63 °F

High & Low Weather Summary for the Past Weeks

 TemperatureHumidityPressure
High90 °F (Sep 13, 3:20 PM)88% (Sep 16, 6:20 AM)30.27 "Hg (Sep 16, 6:20 AM)
Low45 °F (Sep 21, 6:20 AM)23% (Sep 15, 2:50 PM)29.80 "Hg (Sep 15, 3:50 PM)
Average66 °F56%30.05 "Hg
* Reported Sep 9 9:20 PM — Sep 24 9:50 PM, Lennestadt, Weather by CustomWeather, © 2016

Note: Actual official high and low records may vary slightly from our data, if they occured in-between our weather recording intervals... More about our weather records

Advertising

Lennestadt Weather History for the Previous 24 Hours

Scroll right to see more
 ConditionsComfort  
Time TempWeatherWind HumidityBarometerVisibility
9:50 PM
Sat, Sep 24
61 °FClear.6 mph52%30.15 "Hg10 mi
9:20 PM63 °FClear.6 mph49%30.15 "Hg10 mi
8:50 PM64 °FPassing clouds.6 mph46%30.15 "HgN/A
8:20 PM63 °FClear.5 mph49%30.15 "Hg10 mi
7:50 PM63 °FClear.3 mph49%30.15 "Hg10 mi
7:20 PM63 °FSunny.5 mph49%30.15 "Hg10 mi
6:50 PM68 °FSunny.5 mph43%30.15 "Hg10 mi
6:20 PM72 °FPassing clouds.7 mph33%30.15 "HgN/A
5:50 PM72 °FPassing clouds.7 mph33%30.15 "HgN/A
5:20 PM72 °FPassing clouds.8 mph33%30.18 "HgN/A
4:50 PM72 °FPassing clouds.9 mph36%30.18 "HgN/A
4:20 PM73 °FPassing clouds.8 mph33%30.18 "HgN/A
3:50 PM72 °FPassing clouds.7 mph33%30.21 "HgN/A
3:20 PM72 °FPassing clouds.6 mph33%30.21 "HgN/A
2:50 PM72 °FPassing clouds.8 mph36%30.21 "HgN/A
2:20 PM72 °FPassing clouds.7 mph36%30.24 "HgN/A
1:50 PM70 °FSunny.10 mph40%30.24 "Hg10 mi
1:20 PM72 °FPassing clouds.8 mph38%30.24 "HgN/A
12:50 PM70 °FPassing clouds.8 mph43%30.24 "HgN/A
12:20 PM70 °FPassing clouds.8 mph43%30.24 "HgN/A
11:50 AM68 °FPassing clouds.7 mph49%30.27 "HgN/A
11:20 AM66 °FSunny.8 mph56%30.27 "Hg10 mi
10:50 AM64 °FPassing clouds.9 mph60%30.27 "HgN/A
10:20 AM63 °FSunny.10 mph64%30.27 "Hg10 mi
9:50 AM59 °FPassing clouds.10 mph72%30.27 "HgN/A
9:20 AM57 °FSunny.12 mph72%30.24 "Hg10 mi
8:50 AM55 °FSunny.9 mph72%30.27 "Hg10 mi
8:20 AM52 °FSunny.9 mph82%30.24 "Hg10 mi
7:50 AM52 °FSunny.9 mph77%30.24 "Hg10 mi
7:20 AM50 °FSunny.10 mph82%30.24 "Hg10 mi
6:50 AM50 °FClear.12 mph82%30.24 "Hg10 mi
6:20 AM50 °FClear.9 mph82%30.27 "Hg10 mi
5:50 AM50 °FClear.9 mph82%30.27 "Hg10 mi
5:20 AM50 °FClear.7 mph82%30.27 "Hg10 mi
Weather by CustomWeather, © 2016

See weather overviewHow to use our weather pages